TimeCDT,TemperatureF,Dew PointF,Humidity,Sea Level PressureIn,VisibilityMPH,Wind Direction,Wind SpeedMPH,Gust SpeedMPH,PrecipitationIn,Events,Conditions,WindDirDegrees,DateUTC
12:15 AM,71.6,64.4,78,29.95,10.0,SE,3.5,-,N/A,,Scattered Clouds,140,2012-10-23 05:15:00
12:55 AM,71.6,64.4,78,29.93,10.0,SE,4.6,-,N/A,,Clear,130,2012-10-23 05:55:00
1:15 AM,71.6,62.6,73,29.93,10.0,ESE,4.6,-,N/A,,Scattered Clouds,120,2012-10-23 06:15:00
2:15 AM,69.8,62.6,78,29.92,10.0,ENE,4.6,-,N/A,,Scattered Clouds,70,2012-10-23 07:15:00
2:35 AM,68.0,62.6,83,29.93,10.0,Calm,Calm,-,N/A,,Scattered Clouds,0,2012-10-23 07:35:00
2:55 AM,68.0,62.6,83,29.92,10.0,ENE,3.5,-,N/A,,Scattered Clouds,60,2012-10-23 07:55:00
3:15 AM,68.0,62.6,83,29.93,10.0,ENE,3.5,-,N/A,,Scattered Clouds,60,2012-10-23 08:15:00
3:55 AM,69.8,62.6,78,29.92,10.0,ENE,5.8,-,N/A,,Mostly Cloudy,70,2012-10-23 08:55:00
4:15 AM,69.8,62.6,78,29.92,10.0,East,5.8,-,N/A,,Mostly Cloudy,80,2012-10-23 09:15:00
4:35 AM,69.8,62.6,78,29.92,10.0,East,4.6,-,N/A,,Scattered Clouds,80,2012-10-23 09:35:00
4:55 AM,69.8,62.6,78,29.92,10.0,ENE,4.6,-,N/A,,Scattered Clouds,60,2012-10-23 09:55:00
5:15 AM,69.8,62.6,78,29.93,10.0,East,5.8,-,N/A,,Scattered Clouds,90,2012-10-23 10:15:00
5:35 AM,68.0,62.6,83,29.93,10.0,East,5.8,-,N/A,,Mostly Cloudy,80,2012-10-23 10:35:00
5:55 AM,68.0,62.6,83,29.93,10.0,East,4.6,-,N/A,,Scattered Clouds,90,2012-10-23 10:55:00
6:35 AM,68.0,62.6,83,29.93,10.0,Calm,Calm,-,N/A,,Mostly Cloudy,0,2012-10-23 11:35:00
6:55 AM,69.8,62.6,78,29.94,10.0,Calm,Calm,-,N/A,,Scattered Clouds,0,2012-10-23 11:55:00
7:15 AM,69.8,62.6,78,29.94,10.0,SSE,4.6,-,N/A,,Mostly Cloudy,150,2012-10-23 12:15:00
7:35 AM,71.6,62.6,73,29.94,10.0,SSE,8.1,-,N/A,,Scattered Clouds,160,2012-10-23 12:35:00
7:55 AM,69.8,62.6,78,29.94,10.0,SSE,4.6,-,N/A,,Scattered Clouds,150,2012-10-23 12:55:00
8:15 AM,71.6,62.6,73,29.95,10.0,South,6.9,-,N/A,,Scattered Clouds,170,2012-10-23 13:15:00
8:35 AM,71.6,62.6,73,29.96,10.0,South,6.9,-,N/A,,Mostly Cloudy,180,2012-10-23 13:35:00
8:55 AM,71.6,62.6,73,29.96,10.0,South,9.2,-,N/A,,Scattered Clouds,180,2012-10-23 13:55:00
9:15 AM,71.6,62.6,73,29.96,10.0,South,6.9,-,N/A,,Clear,180,2012-10-23 14:15:00
9:55 AM,73.4,62.6,69,29.97,10.0,South,8.1,-,N/A,,Overcast,190,2012-10-23 14:55:00
10:15 AM,73.4,62.6,69,29.97,10.0,SSW,5.8,-,N/A,,Overcast,210,2012-10-23 15:15:00
10:35 AM,73.4,62.6,69,29.97,10.0,South,6.9,-,N/A,,Overcast,190,2012-10-23 15:35:00
10:55 AM,73.4,62.6,69,29.97,10.0,SSW,9.2,-,N/A,,Overcast,200,2012-10-23 15:55:00
11:35 AM,75.2,62.6,65,29.96,10.0,South,10.4,-,N/A,,Overcast,180,2012-10-23 16:35:00
11:55 AM,77.0,62.6,61,29.96,10.0,SSW,9.2,-,N/A,,Overcast,200,2012-10-23 16:55:00
12:15 PM,77.0,62.6,61,29.96,10.0,South,9.2,-,N/A,,Overcast,170,2012-10-23 17:15:00
12:35 PM,77.0,64.4,65,29.96,10.0,South,8.1,-,N/A,,Overcast,190,2012-10-23 17:35:00
12:55 PM,77.0,64.4,65,29.95,10.0,South,6.9,-,N/A,,Overcast,190,2012-10-23 17:55:00
1:15 PM,77.0,64.4,65,29.94,10.0,SSW,6.9,-,N/A,,Overcast,200,2012-10-23 18:15:00
1:35 PM,77.0,64.4,65,29.93,10.0,SSW,6.9,-,N/A,,Overcast,200,2012-10-23 18:35:00
1:55 PM,77.0,64.4,65,29.92,10.0,SSW,9.2,-,N/A,,Overcast,200,2012-10-23 18:55:00
2:15 PM,77.0,64.4,65,29.92,10.0,South,6.9,-,N/A,,Overcast,190,2012-10-23 19:15:00
2:35 PM,77.0,64.4,65,29.92,10.0,South,6.9,-,N/A,,Overcast,190,2012-10-23 19:35:00
3:15 PM,77.0,64.4,65,29.90,10.0,South,11.5,-,N/A,,Overcast,180,2012-10-23 20:15:00
3:35 PM,77.0,64.4,65,29.90,10.0,South,10.4,-,N/A,,Overcast,180,2012-10-23 20:35:00
4:15 PM,78.8,64.4,61,29.89,10.0,South,12.7,18.4,N/A,,Overcast,180,2012-10-23 21:15:00
4:35 PM,78.8,64.4,61,29.89,10.0,South,8.1,-,N/A,,Overcast,180,2012-10-23 21:35:00
4:55 PM,80.6,64.4,58,29.88,10.0,South,10.4,-,N/A,,Overcast,180,2012-10-23 21:55:00
5:15 PM,78.8,64.4,61,29.88,10.0,South,11.5,21.9,N/A,,Mostly Cloudy,190,2012-10-23 22:15:00
5:35 PM,78.8,64.4,61,29.88,10.0,South,8.1,-,N/A,,Mostly Cloudy,180,2012-10-23 22:35:00
5:55 PM,78.8,64.4,61,29.89,10.0,South,9.2,-,N/A,,Mostly Cloudy,180,2012-10-23 22:55:00
6:15 PM,77.0,64.4,65,29.89,10.0,South,6.9,-,N/A,,Overcast,180,2012-10-23 23:15:00
6:35 PM,77.0,64.4,65,29.89,10.0,South,6.9,-,N/A,,Mostly Cloudy,170,2012-10-23 23:35:00
6:55 PM,75.2,62.6,65,29.89,10.0,SSE,3.5,-,N/A,,Overcast,160,2012-10-23 23:55:00
7:15 PM,75.2,62.6,65,29.89,10.0,SE,4.6,-,N/A,,Overcast,140,2012-10-24 00:15:00
7:35 PM,75.2,62.6,65,29.90,10.0,SSE,4.6,-,N/A,,Overcast,150,2012-10-24 00:35:00
7:55 PM,75.2,62.6,65,29.90,10.0,SSE,3.5,-,N/A,,Overcast,160,2012-10-24 00:55:00
8:15 PM,75.2,62.6,65,29.90,10.0,SSE,3.5,-,N/A,,Overcast,160,2012-10-24 01:15:00
8:35 PM,75.2,62.6,65,29.91,10.0,Calm,Calm,-,N/A,,Overcast,0,2012-10-24 01:35:00
8:55 PM,75.2,62.6,65,29.91,10.0,Calm,Calm,-,N/A,,Overcast,0,2012-10-24 01:55:00
9:35 PM,73.4,62.6,69,29.92,10.0,ESE,4.6,-,N/A,,Scattered Clouds,110,2012-10-24 02:35:00
9:55 PM,71.6,60.8,69,29.92,10.0,ESE,3.5,-,N/A,,Mostly Cloudy,120,2012-10-24 02:55:00
10:15 PM,73.4,60.8,65,29.93,10.0,ESE,3.5,-,N/A,,Overcast,120,2012-10-24 03:15:00
10:35 PM,71.6,60.8,69,29.93,10.0,ESE,3.5,-,N/A,,Overcast,120,2012-10-24 03:35:00
10:55 PM,73.4,60.8,65,29.93,10.0,ESE,4.6,-,N/A,,Overcast,120,2012-10-24 03:55:00
11:35 PM,71.6,60.8,69,29.93,10.0,Calm,Calm,-,N/A,,Mostly Cloudy,0,2012-10-24 04:35:00
11:55 PM,69.8,60.8,73,29.94,10.0,Calm,Calm,-,N/A,,Scattered Clouds,0,2012-10-24 04:55:00